GW1975 Weather Reports


Display with metric or nautical units.
time (UTC)temp
F
wind
direction
speed
MPH
gust
MPH
rain 1hr
in
rain 24hr
in
rain mn
in
humidity
%
barometer
mb
20260905040235 84 251 1.0 2.0 0.00 0.00 0.00 69 1014.0
20260905035736 84 256 1.0 2.0 0.00 0.00 0.00 69 1014.0
20260905035235 84 250 2.0 2.0 0.00 0.00 0.00 68 1014.0
20260905034735 84 236 1.0 2.0 0.00 0.00 0.00 68 1014.0
20260905034235 85 251 1.0 2.0 0.00 0.00 0.00 68 1015.0
20260905033735 85 228 0.0 1.0 0.00 0.00 0.00 66 1015.0
20260905033235 85 249 1.0 2.0 0.00 0.00 0.00 66 1015.0
20260905032735 86 255 0.0 1.0 0.00 0.00 0.00 65 1014.0
20260905032235 86 261 1.0 2.0 0.00 0.00 0.00 64 1014.0
20260905031735 86 221 2.0 2.0 0.00 0.00 0.00 62 1015.0
20260905031235 86 243 1.0 2.0 0.00 0.00 0.00 60 1015.0
20260905030737 86 249 2.0 2.0 0.00 0.00 0.00 60 1015.0
20260905030235 87 236 2.0 2.0 0.00 0.00 0.00 60 1015.0
20260905025735 87 246 0.0 1.0 0.00 0.00 0.00 60 1014.0
20260905025235 87 264 2.0 2.0 0.00 0.00 0.00 59 1014.0
20260905024735 87 257 2.0 2.0 0.00 0.00 0.00 58 1014.0
20260905024235 87 251 2.0 2.0 0.00 0.00 0.00 59 1014.0
20260905023735 87 246 1.0 2.0 0.00 0.00 0.00 59 1014.0
20260905023235 87 256 1.0 2.0 0.00 0.00 0.00 59 1014.0
20260905022735 87 271 1.0 2.0 0.00 0.00 0.00 58 1014.0
20260905022235 88 266 1.0 2.0 0.00 0.00 0.00 58 1014.0
20260905021735 88 251 1.0 2.0 0.00 0.00 0.00 58 1014.0
20260905021235 88 250 1.0 2.0 0.00 0.00 0.00 57 1014.0
20260905020735 88 266 2.0 2.0 0.00 0.00 0.00 57 1014.0
20260905020235 88 263 1.0 2.0 0.00 0.00 0.00 57 1014.0
20260905015736 89 253 2.0 2.0 0.00 0.00 0.00 57 1014.0
20260905015236 89 244 2.0 2.0 0.00 0.00 0.00 56 1014.0
20260905014735 89 257 1.0 2.0 0.00 0.00 0.00 55 1014.0
20260905014236 89 255 2.0 2.0 0.00 0.00 0.00 55 1014.0
20260905013735 89 254 2.0 2.0 0.00 0.00 0.00 55 1014.0
20260905013235 89 272 2.0 2.0 0.00 0.00 0.00 54 1014.0
20260905012735 90 254 1.0 2.0 0.00 0.00 0.00 54 1014.0
20260905012235 90 243 2.0 2.0 0.00 0.00 0.00 54 1014.0
20260905011735 90 231 2.0 2.0 0.00 0.00 0.00 54 1014.0
20260905011235 91 245 2.0 2.0 0.00 0.00 0.00 53 1014.0
20260905010735 91 233 2.0 2.0 0.00 0.00 0.00 52 1013.0
20260905010236 92 254 2.0 2.0 0.00 0.00 0.00 51 1014.0
20260905005736 92 248 2.0 3.0 0.00 0.00 0.00 50 1014.0
20260905005235 93 262 1.0 2.0 0.00 0.00 0.00 49 1013.0
20260905004735 93 246 2.0 2.0 0.00 0.00 0.00 48 1014.0
20260905004235 94 242 2.0 3.0 0.00 0.00 0.00 47 1014.0
20260905003735 94 254 2.0 2.0 0.00 0.00 0.00 47 1014.0
20260905003236 95 259 2.0 2.0 0.00 0.00 0.00 45 1013.0
20260905002735 95 245 1.0 2.0 0.00 0.00 0.00 45 1014.0
20260905002235 96 265 1.0 2.0 0.00 0.00 0.00 44 1014.0
20260905001735 96 266 2.0 2.0 0.00 0.00 0.00 44 1013.0
20260905001235 97 248 2.0 2.0 0.00 0.00 0.00 43 1014.0
20260905000736 97 249 2.0 2.0 0.00 0.00 0.00 43 1013.0
20260905000235 97 264 2.0 2.0 0.00 0.00 0.00 42 1014.0
20260904235736 98 247 2.0 2.0 0.00 0.00 0.00 41 1013.0
20260904235235 98 248 2.0 3.0 0.00 0.00 0.00 40 1014.0
20260904234735 98 252 2.0 3.0 0.00 0.00 0.00 41 1013.0
20260904234235 99 248 2.0 3.0 0.00 0.00 0.00 39 1013.0
20260904233735 99 245 2.0 3.0 0.00 0.00 0.00 39 1013.0
20260904233235 100 263 2.0 3.0 0.00 0.00 0.00 39 1013.0
20260904232736 100 245 2.0 3.0 0.00 0.00 0.00 38 1013.0
20260904232235 101 264 2.0 3.0 0.00 0.00 0.00 36 1013.0
20260904231735 102 228 2.0 3.0 0.00 0.00 0.00 36 1013.0
20260904231235 101 266 2.0 3.0 0.00 0.00 0.00 37 1013.0
20260904230736 101 239 3.0 4.0 0.00 0.00 0.00 37 1013.0
20260904230235 101 291 2.0 3.0 0.00 0.00 0.00 37 1013.0
20260904225737 101 237 3.0 4.0 0.00 0.00 0.00 37 1013.0
20260904225235 101 278 3.0 6.0 0.00 0.00 0.00 36 1013.0
20260904224735 101 259 2.0 3.0 0.00 0.00 0.00 37 1013.0
20260904224235 101 241 2.0 4.0 0.00 0.00 0.00 37 1013.0
20260904223736 101 268 2.0 4.0 0.00 0.00 0.00 37 1013.0
20260904223235 100 278 2.0 4.0 0.00 0.00 0.00 37 1013.0
20260904222735 100 235 4.0 4.0 0.00 0.00 0.00 37 1013.0
20260904222235 101 243 2.0 3.0 0.00 0.00 0.00 37 1013.0
20260904221735 101 265 2.0 4.0 0.00 0.00 0.00 36 1013.0
20260904221236 101 281 2.0 3.0 0.00 0.00 0.00 37 1013.0
20260904220736 100 229 2.0 5.0 0.00 0.00 0.00 38 1013.0
20260904220235 100 230 2.0 4.0 0.00 0.00 0.00 38 1013.0
20260904215735 99 195 2.0 2.0 0.00 0.00 0.00 39 1013.0
20260904215236 99 215 3.0 4.0 0.00 0.00 0.00 39 1014.0
20260904214735 99 269 3.0 6.0 0.00 0.00 0.00 38 1013.0
20260904214235 99 285 2.0 4.0 0.00 0.00 0.00 38 1013.0
20260904213736 100 251 4.0 5.0 0.00 0.00 0.00 38 1014.0
20260904213236 99 265 2.0 4.0 0.00 0.00 0.00 39 1014.0
20260904212735 99 264 4.0 5.0 0.00 0.00 0.00 38 1014.0
20260904212235 99 160 0.0 4.0 0.00 0.00 0.00 39 1014.0
20260904211735 98 318 1.0 3.0 0.00 0.00 0.00 38 1014.0
20260904211235 99 259 3.0 5.0 0.00 0.00 0.00 38 1014.0
20260904210735 99 280 2.0 3.0 0.00 0.00 0.00 38 1014.0
20260904210235 99 264 2.0 6.0 0.00 0.00 0.00 38 1014.0
20260904205739 98 258 3.0 7.0 0.00 0.00 0.00 38 1014.0
20260904205235 98 259 3.0 5.0 0.00 0.00 0.00 39 1014.0
20260904204735 98 232 3.0 4.0 0.00 0.00 0.00 39 1014.0
20260904204235 99 255 4.0 7.0 0.00 0.00 0.00 38 1014.0
20260904203735 99 269 1.0 3.0 0.00 0.00 0.00 38 1014.0
20260904203236 99 244 4.0 5.0 0.00 0.00 0.00 38 1014.0
20260904202735 98 257 3.0 4.0 0.00 0.00 0.00 38 1014.0
20260904202236 98 237 3.0 6.0 0.00 0.00 0.00 38 1014.0
20260904201736 98 262 3.0 5.0 0.00 0.00 0.00 38 1015.0
20260904201235 97 217 2.0 3.0 0.00 0.00 0.00 39 1015.0
20260904200736 97 197 2.0 3.0 0.00 0.00 0.00 39 1015.0
20260904200235 98 156 3.0 5.0 0.00 0.00 0.00 38 1015.0
20260904195736 98 232 4.0 5.0 0.00 0.00 0.00 39 1015.0
20260904195235 99 243 2.0 8.0 0.00 0.00 0.00 38 1015.0
20260904194736 99 246 5.0 5.0 0.00 0.00 0.00 39 1015.0
20260904194235 98 264 3.0 4.0 0.00 0.00 0.00 39 1015.0
20260904193736 98 247 2.0 4.0 0.00 0.00 0.00 40 1015.0
20260904193238 98 239 3.0 5.0 0.00 0.00 0.00 40 1015.0
20260904192737 97 241 2.0 2.0 0.00 0.00 0.00 40 1015.0
20260904192236 97 249 3.0 5.0 0.00 0.00 0.00 40 1015.0
20260904191736 97 234 2.0 4.0 0.00 0.00 0.00 41 1015.0
20260904191236 98 227 3.0 9.0 0.00 0.00 0.00 40 1015.0
20260904190735 97 238 4.0 4.0 0.00 0.00 0.00 42 1015.0
20260904190235 97 234 2.0 5.0 0.00 0.00 0.00 41 1015.0
20260904185736 98 264 5.0 5.0 0.00 0.00 0.00 41 1015.0
20260904185237 97 256 1.0 5.0 0.00 0.00 0.00 42 1016.0
20260904184815 97 253 2.0 4.0 0.00 0.00 0.00 43 1015.0
20260904184235 97 233 2.0 7.0 0.00 0.00 0.00 40 1016.0
20260904183735 97 254 5.0 7.0 0.00 0.00 0.00 41 1016.0
20260904183235 97 238 3.0 4.0 0.00 0.00 0.00 43 1016.0
20260904182736 97 269 5.0 7.0 0.00 0.00 0.00 43 1016.0
20260904182235 96 246 2.0 3.0 0.00 0.00 0.00 44 1016.0
20260904181735 96 253 4.0 10.0 0.00 0.00 0.00 43 1016.0
20260904181237 96 275 4.0 6.0 0.00 0.00 0.00 44 1016.0
20260904180737 96 241 3.0 8.0 0.00 0.00 0.00 44 1016.0
20260904180235 95 244 3.0 6.0 0.00 0.00 0.00 44 1016.0
20260904175735 96 249 4.0 7.0 0.00 0.00 0.00 44 1016.0
20260904175235 95 260 6.0 6.0 0.00 0.00 0.00 45 1016.0
20260904174735 95 231 5.0 5.0 0.00 0.00 0.00 44 1016.0
20260904174235 95 250 2.0 6.0 0.00 0.00 0.00 45 1016.0
20260904173736 95 264 5.0 7.0 0.00 0.00 0.00 45 1016.0
20260904173235 95 275 5.0 7.0 0.00 0.00 0.00 45 1016.0
20260904172735 95 235 3.0 6.0 0.00 0.00 0.00 46 1016.0
20260904172236 95 276 5.0 6.0 0.00 0.00 0.00 47 1016.0
20260904171735 95 262 3.0 7.0 0.00 0.00 0.00 46 1016.0
20260904171236 94 243 4.0 6.0 0.00 0.00 0.00 47 1016.0
20260904170736 94 263 4.0 7.0 0.00 0.00 0.00 47 1016.0
20260904170243 94 237 3.0 5.0 0.00 0.00 0.00 48 1016.0
20260904165735 94 274 3.0 5.0 0.00 0.00 0.00 48 1017.0
20260904165235 94 235 3.0 7.0 0.00 0.00 0.00 48 1017.0
20260904164736 93 246 5.0 7.0 0.00 0.00 0.00 48 1017.0
20260904164236 93 250 3.0 7.0 0.00 0.00 0.00 49 1016.0
20260904163735 93 271 4.0 6.0 0.00 0.00 0.00 50 1017.0
20260904163236 92 243 2.0 4.0 0.00 0.00 0.00 52 1017.0
20260904162735 92 255 3.0 4.0 0.00 0.00 0.00 52 1017.0
20260904162236 92 253 3.0 5.0 0.00 0.00 0.00 52 1017.0
20260904161736 91 255 3.0 5.0 0.00 0.00 0.00 54 1017.0
20260904161237 91 261 4.0 7.0 0.00 0.00 0.00 54 1017.0
20260904160735 91 236 3.0 6.0 0.00 0.00 0.00 54 1017.0
20260904160237 91 247 2.0 5.0 0.00 0.00 0.00 55 1017.0
20260904155737 90 240 4.0 6.0 0.00 0.00 0.00 54 1017.0
20260904155235 90 287 4.0 4.0 0.00 0.00 0.00 55 1017.0
20260904154735 90 241 2.0 6.0 0.00 0.00 0.00 55 1017.0
20260904154237 90 268 3.0 7.0 0.00 0.00 0.00 55 1017.0
20260904153736 90 264 6.0 6.0 0.00 0.00 0.00 55 1017.0
20260904153238 90 284 4.0 6.0 0.00 0.00 0.00 55 1017.0
20260904152735 90 319 5.0 6.0 0.00 0.00 0.00 55 1017.0
20260904152236 89 264 3.0 5.0 0.00 0.00 0.00 56 1017.0
20260904151735 89 273 4.0 5.0 0.00 0.00 0.00 56 1017.0
20260904151236 89 253 4.0 11.0 0.00 0.00 0.00 55 1017.0
20260904150736 89 262 4.0 8.0 0.00 0.00 0.00 56 1017.0
20260904150235 88 269 3.0 6.0 0.00 0.00 0.00 57 1016.0
20260904145735 88 260 4.0 7.0 0.00 0.00 0.00 58 1016.0
20260904145236 88 252 5.0 8.0 0.00 0.00 0.00 58 1017.0
20260904144736 88 276 5.0 5.0 0.00 0.00 0.00 58 1016.0
20260904144235 88 266 3.0 6.0 0.00 0.00 0.00 58 1017.0
20260904143736 88 266 3.0 6.0 0.00 0.00 0.00 58 1016.0
20260904143236 88 253 4.0 8.0 0.00 0.00 0.00 58 1016.0
20260904142736 87 300 3.0 6.0 0.00 0.00 0.00 59 1017.0
20260904142237 87 267 3.0 6.0 0.00 0.00 0.00 60 1016.0
20260904141735 87 277 4.0 7.0 0.00 0.00 0.00 59 1016.0
20260904141236 87 267 5.0 5.0 0.00 0.00 0.00 60 1016.0
20260904140737 87 262 4.0 6.0 0.00 0.00 0.00 60 1016.0
20260904140235 86 267 3.0 4.0 0.00 0.00 0.00 61 1016.0
20260904135737 86 252 3.0 3.0 0.00 0.00 0.00 62 1016.0
20260904135236 85 236 3.0 3.0 0.00 0.00 0.00 63 1016.0
20260904134736 85 260 3.0 4.0 0.00 0.00 0.00 63 1017.0
20260904134236 84 265 3.0 4.0 0.00 0.00 0.00 64 1016.0
20260904133736 84 260 2.0 4.0 0.00 0.00 0.00 64 1017.0
20260904133235 84 248 3.0 4.0 0.00 0.00 0.00 65 1016.0
20260904132736 84 245 2.0 4.0 0.00 0.00 0.00 65 1016.0
20260904132235 83 261 1.0 3.0 0.00 0.00 0.00 66 1016.0
20260904131736 83 260 1.0 3.0 0.00 0.00 0.00 67 1017.0
20260904131237 83 266 3.0 3.0 0.00 0.00 0.00 67 1017.0
20260904130736 82 249 3.0 4.0 0.00 0.00 0.00 67 1017.0
20260904130235 82 246 2.0 4.0 0.00 0.00 0.00 68 1017.0
20260904125735 82 243 2.0 5.0 0.00 0.00 0.00 68 1016.0
20260904125235 81 255 2.0 3.0 0.00 0.00 0.00 69 1017.0
20260904124736 81 242 3.0 3.0 0.00 0.00 0.00 70 1016.0
20260904124236 80 266 2.0 4.0 0.00 0.00 0.00 71 1016.0
20260904123735 80 244 4.0 4.0 0.00 0.00 0.00 72 1016.0
20260904123235 80 239 2.0 3.0 0.00 0.00 0.00 73 1016.0
20260904122735 79 253 2.0 3.0 0.00 0.00 0.00 74 1016.0
20260904122235 79 254 2.0 2.0 0.00 0.00 0.00 75 1016.0
20260904121735 78 247 1.0 2.0 0.00 0.00 0.00 76 1016.0
20260904121236 78 247 2.0 2.0 0.00 0.00 0.00 76 1016.0
20260904120736 78 269 0.0 1.0 0.00 0.00 0.00 76 1016.0
20260904120236 78 256 1.0 2.0 0.00 0.00 0.00 76 1016.0
20260904115736 78 252 0.0 2.0 0.00 0.00 0.00 76 1016.0
20260904115235 78 253 1.0 2.0 0.00 0.00 0.00 76 1016.0
20260904114736 78 262 2.0 2.0 0.00 0.00 0.00 75 1016.0
20260904114236 79 250 0.0 1.0 0.00 0.00 0.00 75 1016.0
20260904113737 79 269 0.0 2.0 0.00 0.00 0.00 75 1016.0
20260904113235 79 260 1.0 2.0 0.00 0.00 0.00 74 1016.0
20260904112735 79 246 1.0 2.0 0.00 0.00 0.00 73 1016.0
20260904112235 79 247 1.0 2.0 0.00 0.00 0.00 73 1016.0
20260904111735 80 235 2.0 3.0 0.00 0.00 0.00 72 1016.0
20260904111235 80 235 1.0 2.0 0.00 0.00 0.00 73 1016.0
20260904110735 80 234 1.0 2.0 0.00 0.00 0.00 72 1015.0
20260904110236 79 241 3.0 3.0 0.00 0.00 0.00 72 1015.0
20260904105735 79 238 2.0 2.0 0.00 0.00 0.00 73 1015.0
20260904105236 79 242 3.0 3.0 0.00 0.00 0.00 73 1015.0
20260904104735 78 235 2.0 2.0 0.00 0.00 0.00 75 1015.0
20260904104236 78 259 1.0 2.0 0.00 0.00 0.00 75 1015.0
20260904103735 79 250 1.0 2.0 0.00 0.00 0.00 76 1016.0
20260904103237 79 238 0.0 1.0 0.00 0.00 0.00 76 1015.0
20260904102735 79 250 0.0 2.0 0.00 0.00 0.00 76 1015.0
20260904102235 79 235 1.0 2.0 0.00 0.00 0.00 75 1015.0
20260904101737 79 238 1.0 2.0 0.00 0.00 0.00 75 1015.0
20260904101235 79 263 0.0 2.0 0.00 0.00 0.00 75 1015.0
20260904100735 79 254 1.0 1.0 0.00 0.00 0.00 74 1015.0
20260904100235 80 231 1.0 2.0 0.00 0.00 0.00 74 1015.0
20260904095736 80 202 1.0 2.0 0.00 0.00 0.00 73 1015.0
20260904095236 80 237 1.0 2.0 0.00 0.00 0.00 73 1015.0
20260904094736 79 226 1.0 2.0 0.00 0.00 0.00 73 1015.0
20260904094235 80 246 1.0 2.0 0.00 0.00 0.00 72 1015.0
20260904093736 80 247 1.0 2.0 0.00 0.00 0.00 72 1015.0
20260904093235 80 259 1.0 2.0 0.00 0.00 0.00 72 1015.0
20260904092735 80 217 0.0 2.0 0.00 0.00 0.00 72 1015.0
20260904092235 80 228 2.0 2.0 0.00 0.00 0.00 72 1015.0
20260904091735 80 257 1.0 2.0 0.00 0.00 0.00 72 1015.0
20260904091235 80 235 1.0 2.0 0.00 0.00 0.00 72 1015.0
20260904090736 80 252 0.0 2.0 0.00 0.00 0.00 72 1015.0
20260904090236 80 264 1.0 2.0 0.00 0.00 0.00 72 1015.0
20260904085735 80 248 1.0 2.0 0.00 0.00 0.00 72 1015.0
20260904085236 80 242 1.0 2.0 0.00 0.00 0.00 72 1015.0
20260904084735 80 230 0.0 2.0 0.00 0.00 0.00 72 1015.0
20260904084235 80 253 1.0 2.0 0.00 0.00 0.00 72 1015.0
20260904083736 80 214 0.0 2.0 0.00 0.00 0.00 72 1015.0
20260904083235 80 235 1.0 2.0 0.00 0.00 0.00 71 1015.0
20260904082735 80 215 2.0 2.0 0.00 0.00 0.00 71 1015.0
20260904082235 81 231 0.0 2.0 0.00 0.00 0.00 71 1015.0
20260904081735 81 217 2.0 2.0 0.00 0.00 0.00 71 1015.0
20260904081235 81 215 1.0 2.0 0.00 0.00 0.00 71 1015.0
20260904080736 81 265 1.0 2.0 0.00 0.00 0.00 70 1015.0
20260904080236 81 238 1.0 2.0 0.00 0.00 0.00 70 1015.0
20260904075735 81 222 2.0 2.0 0.00 0.00 0.00 70 1015.0
20260904075235 81 228 1.0 2.0 0.00 0.00 0.00 70 1015.0
20260904074735 81 210 2.0 2.0 0.00 0.00 0.00 70 1015.0
20260904074235 81 223 2.0 2.0 0.00 0.00 0.00 70 1015.0
20260904073735 81 239 2.0 2.0 0.00 0.00 0.00 70 1015.0
20260904073236 81 251 1.0 2.0 0.00 0.00 0.00 70 1015.0
20260904072735 82 278 1.0 2.0 0.00 0.00 0.00 70 1015.0
20260904072235 82 254 1.0 2.0 0.00 0.00 0.00 70 1015.0
20260904071737 82 240 1.0 2.0 0.00 0.00 0.00 69 1015.0
20260904071235 82 239 1.0 2.0 0.00 0.00 0.00 69 1015.0
20260904070735 82 236 1.0 2.0 0.00 0.00 0.00 69 1015.0
20260904070235 82 227 1.0 2.0 0.00 0.00 0.00 69 1015.0
20260904065735 82 244 1.0 2.0 0.00 0.00 0.00 68 1015.0
20260904065235 82 220 2.0 2.0 0.00 0.00 0.00 69 1015.0
20260904064735 82 235 1.0 2.0 0.00 0.00 0.00 69 1015.0
20260904064235 82 225 2.0 2.0 0.00 0.00 0.00 69 1015.0
20260904063735 82 239 2.0 2.0 0.00 0.00 0.00 69 1015.0
20260904063235 82 242 1.0 2.0 0.00 0.00 0.00 69 1015.0
20260904062737 82 231 1.0 2.0 0.00 0.00 0.00 69 1015.0
20260904062235 82 212 1.0 2.0 0.00 0.00 0.00 69 1015.0
20260904061740 82 224 1.0 2.0 0.00 0.00 0.00 69 1015.0
20260904061235 82 242 1.0 2.0 0.00 0.00 0.00 69 1015.0
20260904060735 82 249 2.0 2.0 0.00 0.00 0.00 69 1015.0
20260904060235 82 251 1.0 2.0 0.00 0.00 0.00 70 1015.0
20260904055738 82 223 1.0 2.0 0.00 0.00 0.00 70 1015.0
20260904055235 82 248 1.0 2.0 0.00 0.00 0.00 70 1015.0
20260904054735 82 250 1.0 2.0 0.00 0.00 0.00 70 1015.0
20260904054237 82 251 1.0 1.0 0.00 0.00 0.00 70 1015.0
20260904053735 82 242 1.0 2.0 0.00 0.00 0.00 70 1015.0
20260904053235 82 241 1.0 1.0 0.00 0.00 0.00 70 1015.0
20260904052735 82 258 1.0 2.0 0.00 0.00 0.00 69 1014.0
20260904052235 83 255 1.0 2.0 0.00 0.00 0.00 69 1015.0
20260904051735 83 247 0.0 1.0 0.00 0.00 0.00 69 1015.0
20260904051235 83 261 1.0 2.0 0.00 0.00 0.00 69 1015.0
20260904050737 83 254 2.0 2.0 0.00 0.00 0.00 69 1015.0
20260904050235 83 263 2.0 2.0 0.00 0.00 0.00 69 1015.0
20260904045735 83 253 1.0 2.0 0.00 0.00 0.00 68 1015.0
20260904045239 83 252 1.0 1.0 0.00 0.00 0.00 68 1015.0
20260904044735 84 258 1.0 2.0 0.00 0.00 0.00 68 1015.0
20260904044235 84 247 1.0 2.0 0.00 0.00 0.00 68 1015.0
20260904043737 84 234 2.0 2.0 0.00 0.00 0.00 67 1015.0
20260904043236 84 261 0.0 1.0 0.00 0.00 0.00 67 1015.0
20260904042737 84 262 1.0 2.0 0.00 0.00 0.00 67 1015.0
20260904042235 84 252 1.0 2.0 0.00 0.00 0.00 67 1015.0
20260904041735 84 255 2.0 2.0 0.00 0.00 0.00 66 1015.0
20260904041235 84 252 1.0 2.0 0.00 0.00 0.00 66 1015.0
20260904040735 84 253 2.0 2.0 0.00 0.00 0.00 65 1015.0